User: anonymous   Login
Location: Caltech
(34.1382°N, 118.1253°W)
Time: 09:04:36
(UTC-08:00)
Language:

OAO 2 Rocket - Orbit

View from above orbital plane
View from above orbital plane
View from above satellite
View from above satellite

Ground track
Ground track

The orbit data is extracted from the following two-line orbital elements,

1 03598U 68110B   17017.17035607  .00000031  00000-0  11987-4 0  9990
2 03598  34.9938 109.9652 0048796  82.4181 278.2051 14.54279228544476
Epoch (UTC): 17 January 2017 04:05:18
Eccentricity: 0.0048796
inclination: 34.9938°
perigee height: 677 km
apogee height: 746 km
right ascension of ascending node: 109.9652°
argument of perigee: 82.4181°
revolutions per day: 14.54279228
mean anomaly at epoch: 278.2051°
orbit number at epoch: 54447

The dashed part of the orbit path shows where the satellite is in the earth's shadow,  

DLR